Location: Unspecified
(41.1637°N, 24.2901°E)
Time: 21:12:22
(UTC+02:00)

Tiangong - Pass Details

Date: 26 January 2022
Orbit: 386 x 388 km, 41.5° (Epoch: 26 May)

Event Time Altitude Azimuth Distance (km) Brightness Sun altitude
Rises 18:35:39 0° 240° (WSW) 2,356 6.1 -23.3°
Reaches altitude 10° 18:37:48 10° 234° (SW) 1,500 4.8 -23.7°
Enters shadow 18:39:46 29° 215° (SW) 800 3.0 -24.0°
